Location: Blangy-Tronville
(49.8790°N, 2.4226°E)
Time: 21:33:41
(UTC+00:00)

ATLAS 2AS CENTAUR R/B - Pass Details

Date: 18 November 2025
Orbit: 1047 x 1163 km, 63.7° (Epoch: 10 December)

Event Time Altitude Azimuth Distance (km) Brightness Sun altitude
Rises 17:29:33 0° 312° (NW) 3,865 6.1 -13.8°
Reaches altitude 10° 17:32:28 10° 320° (NW) 2,895 5.3 -14.2°
Maximum altitude 17:38:44 37° 27° (NNE) 1,580 3.3 -15.2°
Enters shadow 17:42:15 23° 78° (ENE) 2,081 3.6 -15.8°
